Back to catalog

ONEWEB-0216

AliveCommunicationsPO
NORAD 48801·PAYLOAD·🇬🇧 United Kingdom

Launched May 28, 2021 from Vostochny Cosmodrome

Loading…

Next Passes (next 24 hours)

TLE

FreshSource: CelesTrak SupGP

Epoch: Sep 14, 2026, 19:02 UTC

1 48801C 21045AL  26257.79324491  .00003054  00000+0  81222-2 0  2579
2 48801  87.8992 241.3324 0002109  86.7080 309.5010 13.15545681    14

Track ONEWEB-0216 in real time with AllMySat

Download on the App Store